Regional Weather Roundup
Issued by NWS Green Bay, WI

Home | Current Version | Previous Version | Graphics & Text | Print | Product List | Glossary Off
Versions: 1 2 3 4 5 6 7 8 9 10 11 12 13 14 15 16 17 18 19 20 21 22 23 24 25 26 27 28 29 30 31 32 33 34 35 36 37 38 39 40 41 42 43 44 45 46 47 48 49 50

024
ASUS43 KGRB 220100
RWRGRB

NORTH-CENTRAL AND NORTHEAST WISCONSIN REGIONAL WEATHER ROUNDUP
NATIONAL WEATHER SERVICE GREEN BAY WI
700 PM CST TUE FEB 21 2017

WIZ005-009-010>012-018-019-220200-
NORTH CENTRAL WISCONSIN

CITY           SKY/WX    TMP DP  RH WIND       PRES   REMARKS
IRONWOOD       CLOUDY    50  31  48 SW7       29.72F
MANITOWISH WTR NOT AVBL
ARBOR VITAE    NOT AVBL
EAGLE RIVER    NOT AVBL
LAND O LAKES   CLOUDY    49  29  46 S8        29.76S
RHINELANDER    PTCLDY    48  33  56 S5        29.77S
PHILLIPS       MOCLDY    46  37  70 S3        29.75S
ANTIGO         NOT AVBL
TOMAHAWK       NOT AVBL
MERRILL        NOT AVBL
$$

WIZ013-073-220200-
NORTHEAST WISCONSIN

CITY           SKY/WX    TMP DP  RH WIND       PRES   REMARKS
IRON MOUNTAIN  CLOUDY    49  28  44 CALM      29.77S
MARINETTE      PTCLDY    47  35  63 S6        29.81
OCONTO         MOCLDY    50  39  67 S3        29.82S
$$

WIZ017-030-035>037-045-220200-
CENTRAL WISCONSIN

CITY           SKY/WX    TMP DP  RH WIND       PRES   REMARKS
MEDFORD        NOT AVBL
WAUSAU         CLOUDY    49  34  56 S9        29.77S
MOSINEE        CLOUDY    48  36  61 S9        29.79S
MARSHFIELD     PTCLDY    52  32  46 S10       29.77F
WISC RAPIDS    CLOUDY    54  33  45 S7        29.80F
STEVENS POINT  NOT AVBL
WAUPACA        CLOUDY    53  37  53 S6        29.81F
SHAWANO        CLOUDY    53  38  56 CALM      29.81F
CLINTONVILLE   CLOUDY    50  37  62 S7        29.81F
WAUTOMA        PTCLDY    52  35  52 S6        29.82F
$$

WIZ038-039-048-051-220200-
FOX VALLEY

CITY           SKY/WX    TMP DP  RH WIND       PRES   REMARKS
NWS GREEN BAY  PTCLDY    50  43  77 S7        29.83F
APPLETON       MOCLDY    46  37  71 S6        29.82F
OSHKOSH        PTCLDY    47  40  76 S10       29.84F
FOND DU LAC    PTCLDY    50  40  68 S6        29.85F
$$

WIZ022-050-052-220200-
EAST CENTRAL WISCONSIN

CITY           SKY/WX    TMP DP  RH WIND       PRES   REMARKS
EPHRAIM        NOT AVBL
WASHINGTON ISL NOT AVBL
STURGEON BAY   MOCLDY    48  38  68 S7        29.83F
MANITOWOC      NOT AVBL
SHEBOYGAN      PTCLDY    47  42  83 S6        29.87S
$$

LMZ563-521-522-541>543-220200-
LAKESHORE

STATION/POSITION TIME  TEMP    WIND        PRES    VSBY  WAVE
                       AIR SEA DIR/SP/G                  HT/PER
                 (UTC) (F)     (DEG/KT/KT) (MB)    (MI)  (FT/S)
SHEBOYGAN LKSHOR 0000   46     190/  7/  8 1011.8S
KEWAUNEE LKSHORE 0030   46     190/  9/ 11 1010.6F
ALGOMA MARINA    0011          220/ 12/ 14   N/A
NORTHPORT PIER   0040   40      CALM  /  3 1009.8F
SISTER BAY LKSHO 2350   51     170/  8/ 10   N/A
CHAMBERS ISLAND  0040   51     180/  6/ 11 1009.1F
MENOMINEE LKSHOR 0030   48     190/ 10/ 12 1009.0F
$$




USA.gov is the U.S. government's official web portal to all federal, state and local government web resources and services.